Regional Weather Roundup
Issued by NWS

Home | Current Version | Previous Version | Graphics & Text | Print | Product List | Glossary On
Versions: 1 2 3 4 5 6 7 8 9 10 11 12 13 14 15 16 17 18 19 20 21 22 23 24 25 26 27 28 29 30 31 32 33 34 35 36 37 38 39 40 41 42 43 44 45 46 47 48 49 50
000
ASUS43 KLSX 181557
RWRMO

WEATHER SUMMARY FOR MISSOURI
NATIONAL WEATHER SERVICE SPRINGFIELD MO
1100 AM CDT FRI AUG 18 2017

NOTE: "FAIR" INDICATES FEW OR NO CLOUDS BELOW 12,000 FEET WITH NO
       SIGNIFICANT WEATHER AND/OR OBSTRUCTIONS TO VISIBILITY.
       CURRENT SKY AND/OR WEATHER CONDITIONS ARE NOT AVAILABLE FOR
       CHILLICOTHE AND FARMINGTON.

MOZ001>031-035>038-043-044-053-054-181700-
...NORTHERN AND WESTERN MISSOURI...

CITY           SKY/WX    TMP DP  RH WIND       PRES   REMARKS
KANSAS CTY INT CLOUDY    75  65  70 S10       29.96F
LEE`S SUMMIT   CLOUDY    73  66  78 SW6       30.00S
ST JOSEPH      CLOUDY    76  68  76 S12       29.94R
CHILLICOTHE      N/A     79  68  69 S5        29.94F

$$
MOZ066>068-077>081-088>096-101>105-181700-
...SOUTHWEST MISSOURI...

CITY           SKY/WX    TMP DP  RH WIND       PRES   REMARKS
SPRINGFIELD    CLOUDY    74  70  87 S6        30.04S
JOPLIN         CLOUDY    79  77  94 SW8       30.03F

$$
MOZ032>034-039>042-045>050-055>058-069>072-181700-
...CENTRAL MISSOURI...

CITY           SKY/WX    TMP DP  RH WIND       PRES   REMARKS
COLUMBIA       NOT AVBL
JEFFERSON CITY SUNNY     80  69  69 CALM      29.98F
ROLLA          SUNNY     79  64  60 NW8       30.03F
SEDALIA        MOSUNNY   80  68  66 SW7       30.00F
WARRENSBURG    PTSUNNY   75  66  73 SW8       29.99S

$$
MOZ051-052-059>065-181700-
...EAST CENTRAL MISSOURI...

CITY           SKY/WX    TMP DP  RH WIND       PRES   REMARKS
ST LOUIS INTL  MOSUNNY   81  64  56 NW7       30.00F

$$
MOZ072>076-082>087-097>100-106>115-181700-
...SOUTH CENTRAL AND SOUTHEAST MISSOURI...

CITY           SKY/WX    TMP DP  RH WIND       PRES   REMARKS
CAPE GIRARDEAU SUNNY     80  68  66 NW3       30.01R
POPLAR BLUFF   SUNNY     83  68  60 NW5       30.01S

$$



USA.gov is the U.S. government's official web portal to all federal, state and local government web resources and services.